Location: Saint-Restitut
(44.3351°N, 4.7915°E)
Time: 15:51:07
(UTC+00:00)

CSL-04 Debris - Pass Details

Date: 24 February 2024
Orbit: 824 x 843 km, 98.8° (Epoch: 21 April)

Event Time Altitude Azimuth Distance (km) Brightness Sun altitude
Exits shadow 18:25:12 14° 112° (ESE) 2,179 5.8 -12.1°
Maximum altitude 18:28:46 26° 63° (ENE) 1,572 5.1 -12.8°
Drops below altitude 10° 18:33:09 10° 8° (N) 2,435 6.5 -13.6°
Sets 18:35:50 0° 357° (N) 3,372 7.4 -14.0°
